星链-1368 (STARLINK-1368 )

导读

STARLINK-1368是美国SpaceX公司星链星座中的一颗低轨通信卫星,于2020年4月22日发射升空,属于星链项目早期部署的卫星之一,运行在近地轨道。作为全球规模最大卫星互联网星座组成部分,它承担着为全球提供高速低延迟互联网接入的任务,尤其助力偏远地区网络覆盖,也可服务应急通信与特定领域应用,其部署推动了卫星互联网发展,但也引发太空拥堵等争议。

基本信息
目录编号:
45540
目录名称:
STARLINK-1368
国际标识:
2020-025K
轨道中心:
EARTH
卫星名称:
星链-1368
卫星全名:
星链-1368 (STARLINK-1368 )
卫星状态:
在轨 (已飞行2248 天)
发射日期:
2020-04-22 UTC
国别 :
美国 (US)
星等 :
--
轨道信息
数据来源 国际轨道数据
星历时间: 2026-06-18T05:17:38+0800
1天前
查看轨道信息
半长轴: 6829.068km
偏心率: 0.0002839
轨道倾角: 53.157°
近地点辐角 181.653°
升交点赤经 353.388°
平近点角 178.447°
近地点: 448.992km
远地点: 452.87km
周期: 93.606分钟
每日圈数: 15.383696
详细信息
固有亮度:
5
最大亮度:
2.5
卫星平台:
Starlink V1.0
覆盖范围:
全球
运营商:
太空探索技术公司
运营商所在国:
美国
制造商(研发单位):
太空探索技术公司
制造商所在国:
美国
使用方式:
暂无
卫星简介
星链(Starlink)计划是由太空探索技术公司(SpaceX)提出的一个巨型低轨卫星互联网星座项目,计划在2019年至2024年间在太空搭建由约1.2万颗卫星组成的“星链”网络,其中1584颗将部署在地球上空550千米处的近地轨道,并从2020年开始工作。该卫星仍在工作。
2D轨道图
3D轨道图
轨道高度分析图
轨道倾角分析图
轨道综合分析图
查看轨道综合分析图